Wind_Speed
61 61 59 57 57 57 56 51 49 54 56 52 51 53 55 52 49 48 46 45 43 40 36 31 30 30 30 33 36 36 34 32 30 29 28 27 25 26 24 23 26 28 25 23 24 26 30 32 32 33 33 35 37 35 33 32 31 29 27 26 25 26 26 26 26 26 25 25 25 26 26 25 23 23 22 22 22 23 23 22 21 21 21 20 19
62 61 59 57 55 56 58 57 57 60 57 53 53 55 54 50 48 49 48 45 43 39 33 30 30 30 30 32 34 35 32 30 30 31 31 28 27 28 27 26 28 30 27 23 24 27 30 31 32 34 32 33 36 38 37 37 36 34 33 31 29 28 28 28 28 28 27 26 26 25 25 25 24 23 23 23 24 24 24 23 22 21 22 22 20
58 59 59 57 57 61 63 59 57 57 56 56 56 56 53 48 46 47 45 41 41 38 33 32 32 31 30 31 33 33 31 29 28 30 32 32 33 32 30 28 29 31 29 24 25 27 30 31 33 36 36 34 34 36 37 36 37 38 38 37 37 34 32 31 30 29 28 27 27 27 26 24 24 23 23 24 25 25 24 23 22 22 22 22 21
58 60 62 63 63 63 60 55 57 58 57 58 58 57 52 49 48 45 42 42 43 38 33 34 33 30 29 30 31 30 29 29 29 31 32 34 37 35 32 29 29 31 29 25 25 26 29 31 33 36 39 39 37 36 36 37 37 38 39 40 41 40 38 35 33 31 30 29 29 29 27 25 24 24 24 24 25 25 24 24 23 22 22 23 23
65 67 69 69 66 63 61 59 61 60 57 56 56 53 48 48 50 46 44 43 41 36 31 31 30 28 27 28 30 30 29 30 31 33 34 36 39 38 34 30 31 31 29 26 24 25 27 28 29 30 34 40 42 41 40 40 41 41 41 41 43 43 42 39 37 35 34 33 32 30 29 29 28 26 26 25 24 24 24 25 24 23 23 24 24
70 72 72 71 68 66 65 63 62 61 60 56 50 47 45 46 47 46 44 39 34 31 28 27 27 27 27 27 28 30 31 31 32 34 35 36 40 41 35 31 31 30 28 26 25 25 25 26 26 26 28 34 40 44 44 43 43 43 43 43 44 44 43 42 40 39 38 36 34 33 31 30 30 29 28 26 24 24 25 25 25 24 24 24 25
64 66 67 67 66 65 65 63 63 62 60 55 48 45 47 48 47 44 42 37 31 28 27 26 26 25 25 26 27 30 32 32 32 33 33 35 41 43 38 32 30 29 29 28 27 26 25 23 24 26 29 31 35 41 43 43 43 42 43 44 44 44 44 43 42 41 40 39 37 35 33 32 31 30 29 27 25 24 25 26 26 25 24 25 25
57 60 64 64 63 62 61 60 60 58 55 52 47 45 46 47 43 39 40 38 31 28 28 26 25 24 25 26 27 29 30 31 31 32 31 34 41 44 40 35 32 32 32 32 32 30 26 20 19 23 26 29 32 37 39 40 40 39 40 43 44 43 43 43 42 41 41 41 40 38 36 35 34 33 31 30 29 28 27 27 27 26 25 26 26
64 64 64 62 61 58 56 57 55 53 51 49 45 42 42 42 40 39 41 38 32 30 29 28 26 26 26 26 26 27 29 30 30 31 31 34 41 43 40 38 36 35 34 34 35 35 30 22 19 21 22 23 26 32 35 36 35 34 36 40 43 42 42 42 41 41 40 40 41 40 39 39 38 37 36 35 35 33 30 28 28 27 27 28 28
63 63 60 58 58 55 53 53 51 49 48 47 45 42 41 40 39 40 40 36 33 32 30 29 29 29 28 26 26 28 31 31 31 31 30 33 41 42 39 39 38 35 34 34 35 34 31 27 25 25 25 24 23 25 30 32 31 30 32 36 39 40 41 41 41 41 40 38 38 39 39 40 39 38 37 35 34 33 31 30 29 28 28 28 29
55 55 54 53 52 50 49 48 47 47 47 48 47 45 42 39 38 40 37 34 34 33 30 29 29 30 30 27 26 29 34 34 34 33 30 32 39 42 40 39 39 38 38 37 32 30 30 31 31 29 29 28 25 25 27 29 29 28 30 32 35 37 38 40 41 42 41 38 36 37 38 39 38 37 35 33 32 31 30 29 29 29 28 28 28
48 48 48 47 46 45 45 46 45 45 46 48 48 46 45 42 39 39 36 33 35 34 31 28 27 27 28 27 26 29 36 37 36 35 32 31 37 43 42 40 41 41 40 37 32 30 32 34 35 33 31 29 26 27 28 29 30 29 29 30 32 34 35 37 38 40 41 40 38 37 38 39 39 38 36 33 31 30 29 29 29 29 29 28 27
42 42 42 42 42 41 42 44 44 44 47 48 48 47 47 44 40 38 35 33 35 35 32 30 29 28 28 28 27 28 35 39 39 36 34 33 35 42 44 43 43 42 41 38 34 33 33 34 35 34 32 29 27 29 30 28 29 30 29 29 30 30 31 32 34 37 39 41 41 40 40 41 40 39 37 35 32 30 29 29 29 30 30 30 28
36 36 37 37 38 38 40 42 43 44 46 47 47 48 47 43 39 37 34 33 35 34 34 33 34 34 30 28 29 30 33 39 41 39 36 34 35 40 44 45 44 43 43 40 36 34 33 34 33 32 32 31 30 31 31 28 27 27 27 27 27 27 27 28 30 32 35 37 40 42 41 41 41 40 38 36 33 32 31 30 30 31 31 31 29
33 33 33 34 34 36 38 40 42 43 45 45 46 49 48 43 38 37 36 35 36 36 35 34 35 38 34 29 30 33 35 38 41 41 39 37 37 40 44 45 44 42 44 43 39 35 33 33 33 32 31 31 31 33 33 29 25 23 23 23 24 25 26 27 29 30 31 34 36 40 42 42 42 42 40 38 36 35 33 32 32 32 32 32 31
30 31 31 32 32 34 35 37 39 42 44 45 47 49 49 45 41 39 38 37 38 38 37 34 32 34 34 32 32 36 38 38 39 39 40 40 40 42 44 44 43 42 43 44 41 37 36 35 35 34 33 33 33 33 33 33 30 26 23 23 25 26 27 29 29 30 30 32 34 37 40 42 43 43 43 41 40 39 37 35 34 33 34 33 33
29 29 29 30 31 32 33 35 37 40 42 44 47 49 48 47 44 41 40 38 37 38 37 35 33 32 33 33 34 38 41 41 40 39 38 39 41 42 44 44 43 43 43 44 42 40 41 42 40 38 37 38 37 36 35 36 36 34 31 30 30 31 31 31 31 30 30 30 31 33 36 39 42 43 44 44 44 43 42 40 39 37 36 35 34
28 28 28 29 30 31 32 34 35 38 41 43 46 47 47 47 46 43 41 39 37 36 36 36 35 35 35 34 34 38 43 44 42 41 39 38 40 43 45 45 44 44 44 44 43 42 43 44 43 42 41 41 40 39 39 39 40 39 38 37 35 33 33 32 32 31 30 29 29 29 31 34 37 39 42 44 45 45 45 45 44 43 41 39 37
27 27 28 28 29 30 31 32 34 36 39 41 44 46 46 48 48 46 44 43 40 38 38 39 37 37 38 38 35 36 41 44 43 41 41 40 40 42 45 45 45 45 45 44 44 44 44 44 44 43 42 42 42 41 41 41 42 43 42 40 38 35 33 33 34 33 31 30 29 28 28 29 31 34 37 40 43 44 43 43 44 44 44 43 41
26 26 27 27 28 29 30 31 32 34 36 39 41 43 44 47 50 49 48 46 45 42 41 42 40 39 41 42 39 36 37 43 44 43 41 41 42 43 44 45 45 44 44 44 44 44 44 44 45 44 42 42 43 42 42 43 44 44 43 41 39 36 34 35 35 35 33 31 30 29 28 27 27 28 30 33 37 40 41 40 40 41 42 43 43
25 25 26 26 27 28 29 31 32 32 34 36 38 40 42 45 49 52 51 50 49 46 44 44 43 40 41 43 41 37 36 39 44 45 42 42 43 44 45 46 45 45 44 43 43 44 44 44 44 44 42 41 41 41 43 44 44 43 43 43 41 38 37 37 36 36 36 34 32 31 29 27 26 26 26 27 30 34 38 40 40 40 40 41 42
27 27 28 28 28 29 29 30 31 32 33 34 35 37 39 42 46 50 52 52 52 50 46 45 44 42 42 44 43 39 38 38 42 45 45 44 45 45 46 47 46 46 45 44 44 43 43 43 42 43 42 41 40 41 42 43 42 41 41 42 42 41 40 39 37 37 37 36 34 32 31 29 28 27 26 25 25 27 31 35 39 41 43 43 44
29 29 30 30 31 31 32 32 33 33 33 33 34 35 37 39 43 47 50 52 52 52 49 47 46 43 42 45 45 42 40 41 42 44 46 46 46 46 46 46 46 45 45 45 45 43 41 41 41 41 42 43 43 43 43 44 43 41 40 40 41 42 42 39 38 38 38 38 36 35 34 32 31 30 29 27 26 27 29 30 33 36 40 43 45
31 31 31 31 31 32 32 33 35 35 36 36 36 35 35 36 39 43 46 49 51 52 51 50 49 46 44 46 47 44 43 43 45 46 46 47 47 47 47 47 45 45 45 45 44 43 41 41 40 41 42 44 45 45 46 46 45 43 41 39 39 41 41 40 39 39 39 39 39 39 38 35 33 32 30 29 29 29 30 30 30 31 33 36 38
33 33 33 33 32 32 32 33 34 36 38 39 39 39 38 37 38 40 42 46 48 50 51 51 51 50 47 47 48 48 47 45 45 48 48 47 48 48 48 48 47 46 46 45 44 43 43 42 42 41 42 43 44 46 48 48 47 45 43 40 40 40 40 41 41 39 39 40 40 41 41 37 35 33 32 31 31 31 31 31 30 30 30 31 33
35 35 35 35 35 34 34 34 35 36 37 39 41 41 41 41 40 40 41 43 46 48 50 51 52 52 50 49 50 51 52 49 46 48 51 49 49 49 49 50 49 48 48 47 46 45 45 45 44 43 43 43 43 44 47 49 48 47 46 44 44 43 42 42 42 41 41 41 42 43 42 39 37 35 33 32 32 33 33 33 33 31 30 30 30
37 36 36 37 37 37 37 37 37 37 37 38 40 41 42 43 43 42 42 42 44 46 48 50 51 53 52 51 52 53 56 55 49 47 51 54 52 51 51 51 50 51 51 50 48 48 48 48 47 45 44 44 44 44 47 49 49 49 49 49 48 46 44 44 44 44 43 43 43 44 43 41 39 38 37 36 36 37 37 37 37 35 33 31 30
39 39 39 39 39 39 39 40 40 40 39 39 40 41 42 43 44 44 44 43 44 44 46 49 50 52 52 53 53 55 58 60 56 50 50 54 57 56 54 53 52 52 52 53 53 52 51 51 50 48 47 47 47 46 47 48 49 50 52 51 50 47 46 45 45 45 44 44 44 44 44 44 43 42 42 41 41 41 41 41 41 40 38 36 32
42 42 42 42 42 42 41 42 42 42 41 41 40 41 41 42 44 45 45 45 45 45 46 48 50 51 51 52 53 55 59 62 62 57 51 51 56 60 59 58 57 55 55 54 54 54 54 53 53 52 50 50 50 49 47 47 48 51 52 52 50 48 46 46 46 46 45 45 45 45 46 46 45 45 45 44 44 43 43 43 43 42 42 41 39
46 45 45 45 45 44 44 44 44 44 44 44 43 42 42 42 43 44 46 46 46 46 47 48 50 51 51 52 52 55 58 62 65 64 58 52 52 57 61 61 60 60 59 57 56 55 54 54 54 54 53 51 51 51 50 50 50 51 51 51 50 49 48 48 48 47 47 47 47 46 46 46 47 47 46 46 46 45 45 45 45 44 43 44 44
49 49 49 48 48 48 47 47 46 46 46 46 46 46 44 43 43 43 45 47 48 48 48 48 49 50 51 52 53 54 57 61 65 66 65 60 54 54 58 62 62 61 61 60 58 57 55 54 54 54 54 53 53 52 51 51 52 52 52 52 51 51 51 51 50 50 49 48 49 49 48 48 48 48 48 48 47 47 47 47 47 46 45 45 46
51 51 51 51 51 51 50 50 49 49 48 49 49 49 49 47 46 44 44 46 48 49 50 50 50 51 51 51 53 55 56 59 63 66 67 66 61 57 56 59 61 62 61 60 60 59 58 57 56 56 56 56 56 55 54 54 54 54 53 53 53 53 54 54 53 53 53 52 52 51 51 51 50 49 49 49 49 49 48 49 49 49 49 48 48
54 54 54 54 54 53 53 53 52 52 52 52 51 52 52 51 50 49 47 46 47 48 50 51 52 52 52 52 53 54 56 58 61 64 66 67 66 63 59 58 59 62 63 62 61 60 60 60 59 59 59 60 60 59 58 58 59 58 57 56 55 55 55 56 57 57 57 57 56 55 54 53 52 52 51 51 51 51 50 51 52 53 53 53 52
57 58 58 57 57 56 56 55 55 55 55 54 54 54 53 53 53 53 52 51 49 49 49 51 52 53 54 54 54 54 56 58 60 62 64 66 67 67 65 63 61 61 63 65 65 64 63 63 62 62 62 62 62 61 61 60 61 61 61 60 59 58 58 58 59 60 60 60 60 58 57 55 54 53 53 53 52 52 53 53 54 54 55 56 55
56 59 60 60 60 59 59 59 59 58 58 58 57 56 56 56 56 56 56 56 55 53 52 52 52 53 54 55 56 56 56 58 60 61 63 65 67 68 68 68 66 64 62 65 67 68 68 66 66 65 65 65 65 64 64 64 64 63 63 63 63 63 62 62 62 62 62 62 62 61 60 58 57 57 56 56 56 56 56 56 55 55 55 56 56
59 60 60 61 61 61 61 62 62 61 60 60 60 60 59 59 59 59 58 58 58 58 57 57 56 55 55 56 57 57 57 57 59 61 63 65 65 67 68 69 70 69 67 66 66 69 71 71 70 68 68 68 68 68 68 68 68 68 68 68 67 66 66 66 66 66 65 65 64 64 63 62 61 61 60 60 60 60 60 60 59 58 57 57 57
59 62 63 63 63 64 63 63 64 63 62 62 62 63 63 62 62 61 61 60 60 60 60 60 60 59 59 58 58 58 58 58 59 60 62 65 66 67 68 69 70 71 72 72 70 69 70 72 74 73 72 71 71 72 72 72 72 72 72 72 71 71 70 70 69 69 69 69 68 67 66 65 64 64 63 63 63 64 64 64 63 62 62 61 61
53 57 59 61 62 64 66 66 65 65 64 64 64 64 64 64 64 64 64 63 63 63 63 63 63 63 63 62 62 61 60 60 60 60 61 63 66 68 69 69 70 71 72 74 74 74 72 73 74 75 76 76 76 75 75 75 75 75 75 74 74 74 74 74 74 74 74 73 72 70 69 68 67 66 65 65 66 66 66 66 66 66 67 67 67
48 51 53 56 58 61 63 65 66 66 66 66 67 68 68 67 66 66 65 66 66 65 66 66 66 66 66 65 65 65 65 64 63 63 62 63 64 66 68 70 71 72 72 73 75 76 76 76 76 76 77 78 79 80 79 78 77 77 77 77 78 78 78 77 77 77 77 76 76 75 75 73 72 70 68 66 65 66 66 66 67 67 68 69 69
46 47 48 53 59 62 62 61 63 65 65 65 66 68 69 68 68 67 66 67 68 69 69 69 69 69 68 67 67 67 68 67 67 66 66 65 65 66 67 69 70 71 73 74 75 75 76 77 78 79 79 79 80 81 81 81 81 81 80 79 80 81 81 81 81 81 80 79 78 78 78 78 78 78 77 75 72 70 68 68 68 69 70 70 70
54 48 43 46 54 59 59 58 58 59 62 64 66 68 69 69 69 69 68 68 69 70 71 72 72 72 71 70 70 70 70 70 70 70 70 69 69 69 69 69 70 70 71 72 74 75 76 77 78 79 80 81 82 84 84 83 82 83 83 82 81 81 82 82 83 84 85 84 83 83 82 82 82 82 82 82 81 80 78 77 76 76 76 76 77
60 52 47 48 53 56 58 59 60 61 62 64 66 69 72 72 71 70 70 70 70 71 72 73 73 73 74 73 73 73 74 74 73 73 73 72 72 73 73 73 72 72 72 72 73 74 74 76 77 79 80 81 82 83 84 85 84 83 83 83 83 84 83 82 82 83 84 85 85 85 86 87 87 86 85 85 84 84 84 84 84 85 85 85 85
62 59 58 60 62 64 65 65 65 66 66 65 65 68 71 73 73 72 72 72 72 72 73 74 74 75 75 76 76 77 78 78 77 76 76 76 76 76 76 76 76 75 75 75 75 75 75 75 76 77 79 80 81 82 82 83 84 84 83 82 82 82 83 83 84 84 85 84 83 83 85 87 87 87 87 87 87 86 85 86 86 87 87 87 87
68 69 70 72 72 71 69 67 66 66 67 66 66 68 70 72 73 73 73 73 73 72 72 74 76 76 76 76 77 78 80 81 80 79 79 79 79 79 79 79 79 79 78 78 78 78 78 78 78 78 78 79 80 81 81 81 82 82 83 84 83 82 82 82 83 84 86 86 85 84 85 86 87 86 86 87 87 87 87 87 88 88 88 88 87
70 72 74 76 75 73 71 68 66 65 66 66 67 69 70 71 71 72 72 72 72 72 72 73 75 76 77 78 78 79 81 83 83 83 82 82 83 83 83 83 83 82 82 81 82 82 82 81 81 81 81 81 80 81 82 82 82 82 83 83 84 84 83 83 83 84 85 86 86 85 85 87 88 87 87 88 88 88 87 87 88 88 89 90 90
71 72 74 75 75 74 71 69 67 67 68 68 69 70 71 71 72 72 72 73 72 72 73 73 73 75 76 76 78 79 82 84 85 85 85 85 86 85 85 85 85 86 85 85 85 86 86 85 85 85 85 84 84 84 84 84 83 83 83 83 84 83 84 84 85 85 86 87 86 85 85 87 88 88 87 88 90 89 88 88 88 89 89 90 91
74 74 74 75 75 74 72 70 69 71 72 72 72 72 72 73 74 75 75 75 75 76 77 77 77 77 77 77 78 79 80 82 83 85 86 87 88 88 87 87 87 88 88 89 89 89 89 89 88 88 89 89 88 88 88 88 87 86 85 84 84 84 84 84 85 86 86 87 88 86 84 86 88 87 87 88 89 89 89 88 88 89 89 90 91
76 75 75 75 75 74 73 71 72 74 75 76 75 74 73 74 75 77 77 77 78 79 80 80 80 81 82 82 82 82 81 81 82 83 85 86 88 89 89 89 90 91 91 92 92 92 92 92 92 92 92 92 92 92 92 92 92 91 89 88 87 87 86 85 85 86 87 88 89 88 86 86 89 89 88 89 89 89 89 88 88 88 89 89 90
76 76 75 74 74 73 71 71 73 76 77 78 77 76 75 76 77 78 79 79 79 80 80 80 80 81 83 84 84 84 84 84 84 85 85 86 87 87 88 90 91 93 94 95 95 95 95 95 96 96 95 95 95 95 95 95 95 95 94 92 92 91 89 88 88 88 89 89 90 90 88 88 90 90 89 90 90 90 90 89 88 88 89 89 90
76 75 74 74 72 70 69 70 74 76 78 78 77 77 77 78 78 79 80 81 81 81 80 81 81 82 83 84 85 85 86 87 87 87 87 87 88 88 88 88 90 91 93 95 97 97 98 98 98 98 99 99 99 99 99 98 98 98 98 97 97 96 94 92 92 92 92 92 93 93 92 91 92 92 91 91 92 91 91 91 89 88 88 89 90
76 75 74 73 71 69 69 71 73 75 77 77 77 78 78 78 79 79 80 81 81 81 82 83 83 84 85 85 85 85 86 88 89 90 89 89 89 89 89 88 88 90 91 93 95 97 98 100 101 101 101 101 101 101 101 102 101 101 100 100 100 99 98 97 97 96 95 95 97 97 96 95 95 95 94 94 94 94 95 94 92 91 90 90 91
Wind_Direction
272 273 274 274 274 275 276 275 274 277 279 276 273 276 279 279 277 274 274 278 284 288 283 272 262 259 257 253 251 248 245 243 237 232 242 246 231 219 224 245 249 241 234 235 242 240 243 248 248 247 242 235 235 237 239 240 239 237 236 235 237 239 242 244 245 249 251 253 258 261 260 257 258 263 268 270 272 273 274 274 268 263 264 266 267
269 270 271 270 270 272 275 275 275 277 275 272 274 276 277 274 269 269 272 277 281 280 275 269 261 258 257 253 251 250 245 243 240 233 235 232 217 214 231 247 247 243 240 239 246 248 250 254 253 252 249 242 237 237 239 243 245 248 247 244 242 241 240 241 243 245 247 251 258 262 261 256 255 261 267 270 271 272 273 274 270 263 260 261 263
266 269 270 270 270 273 275 275 274 274 271 271 274 275 275 268 263 267 271 276 279 274 269 268 261 256 255 252 250 249 244 240 240 238 235 226 215 214 227 237 238 238 239 240 245 251 254 255 255 252 250 247 243 241 242 244 248 252 255 255 253 249 245 244 244 246 248 252 256 260 259 254 253 259 264 267 268 268 270 271 270 264 257 256 259
267 269 270 271 272 272 272 270 271 273 273 273 274 274 272 263 257 263 269 274 276 272 268 265 256 252 254 251 248 246 242 237 235 238 238 231 220 215 221 228 228 230 231 234 241 248 251 252 253 252 249 246 245 244 243 243 246 248 252 254 255 254 250 247 246 247 250 252 252 253 252 249 250 255 260 263 264 265 266 268 269 265 257 253 255
266 267 267 269 270 270 269 270 270 271 272 273 275 272 266 259 254 259 267 271 272 270 265 256 251 251 253 252 248 245 242 238 235 236 238 235 225 217 219 221 222 227 227 227 235 243 247 247 247 249 248 245 244 244 242 241 242 244 246 248 251 253 252 249 246 244 246 247 246 247 248 250 253 256 260 262 264 265 264 265 266 265 256 250 252
265 265 265 266 268 268 268 269 269 268 268 269 269 265 259 255 254 259 263 264 268 266 256 248 248 251 253 252 247 245 243 241 239 237 237 236 227 219 217 217 219 226 226 225 233 243 249 250 249 251 251 246 243 243 243 242 241 242 244 246 248 250 251 251 249 245 244 245 246 246 249 252 255 257 258 260 263 265 264 264 265 264 256 248 249
265 265 265 266 268 267 267 267 266 265 263 262 260 257 254 252 254 258 254 254 262 257 249 248 249 250 253 251 245 244 243 241 239 238 236 233 227 222 217 212 215 224 229 231 239 248 254 258 259 258 257 253 245 242 242 243 242 242 242 245 247 248 250 251 252 250 248 248 249 249 250 252 254 256 255 257 262 265 265 264 265 265 258 249 248
262 264 266 267 267 266 266 264 261 260 258 255 254 252 252 249 248 249 246 251 256 247 244 248 247 248 250 249 247 245 243 239 236 237 236 228 223 224 219 211 211 220 231 239 245 251 256 262 266 262 261 259 251 244 242 242 242 240 239 241 244 246 248 250 252 252 251 251 251 251 252 253 254 255 255 257 262 266 265 263 264 265 259 251 250
259 263 265 265 265 264 262 259 256 254 252 250 247 246 247 245 244 247 249 251 247 240 241 243 244 246 246 246 244 241 240 239 234 234 235 225 219 223 223 215 210 215 226 237 244 249 253 260 270 272 272 270 261 253 248 245 243 240 238 239 242 245 246 248 250 252 253 254 253 254 254 255 256 256 258 260 263 266 265 263 262 263 259 254 253
259 261 261 261 261 260 257 255 252 248 246 242 240 242 245 246 248 251 252 247 238 236 239 241 245 245 242 243 240 232 231 236 238 235 235 227 219 220 223 219 213 212 223 234 239 244 249 258 269 273 275 276 276 271 260 251 247 243 241 241 243 245 246 247 248 248 250 254 256 256 257 258 259 260 261 262 264 265 264 262 260 260 260 258 257
258 258 258 257 256 255 252 250 247 244 241 237 237 240 243 247 249 248 247 240 231 232 236 239 244 243 240 239 238 229 224 230 239 239 237 230 221 219 220 220 217 215 222 229 231 238 246 254 262 268 271 273 277 284 275 258 248 244 242 242 244 246 248 249 249 248 247 249 253 256 257 258 260 262 263 264 264 264 263 262 260 260 261 260 261
256 255 255 253 252 250 247 244 242 240 237 235 237 239 242 246 245 241 241 235 227 228 231 234 238 240 239 239 239 231 224 226 235 239 238 231 224 221 220 220 220 218 220 221 222 236 247 251 257 262 266 268 271 280 281 264 249 245 243 244 246 247 250 251 252 252 249 247 248 252 256 257 259 261 263 265 265 264 265 264 261 260 260 261 262
254 253 251 250 248 245 243 241 241 239 237 237 239 241 241 241 238 237 240 234 226 226 229 230 232 235 237 238 241 236 228 226 231 237 239 234 227 223 222 221 222 221 220 217 217 231 244 248 253 256 258 263 264 269 277 269 254 249 246 246 248 250 252 253 253 252 251 248 247 248 253 256 258 261 263 264 264 264 265 265 263 260 259 260 261
252 250 248 247 244 242 240 240 241 239 238 237 238 239 236 232 231 234 236 231 226 228 231 231 230 232 235 235 237 235 230 228 230 233 237 237 231 225 223 223 225 224 221 218 217 224 235 239 244 247 252 259 259 262 270 270 259 253 250 249 251 253 254 254 253 251 250 249 247 246 250 255 259 261 262 262 262 262 263 263 263 259 257 258 260
249 248 246 245 242 240 239 238 238 238 237 235 233 234 232 226 225 230 232 228 226 229 233 234 231 231 234 235 233 228 226 228 231 232 234 235 232 226 223 223 224 223 220 219 218 222 229 233 235 237 243 251 255 258 264 264 257 250 250 250 251 252 253 253 253 252 251 251 250 248 248 252 257 260 261 261 260 260 260 260 260 259 257 257 259
246 245 244 243 241 239 237 235 235 235 234 233 231 231 229 225 223 227 230 228 228 231 234 236 233 231 233 235 233 225 222 227 229 230 231 232 231 227 223 222 223 223 223 222 221 223 230 233 235 236 238 244 247 251 257 258 254 248 242 239 241 245 248 251 253 255 254 253 252 251 250 251 253 257 260 261 260 259 259 259 260 260 259 258 259
243 242 240 239 239 238 236 234 233 232 233 232 231 231 228 224 223 224 227 229 232 235 234 232 232 232 232 234 233 225 222 226 228 228 230 230 231 229 225 224 223 224 225 225 224 226 231 233 236 239 241 243 243 244 248 251 252 250 242 237 239 244 248 251 254 255 257 256 255 254 254 253 253 254 257 259 261 260 259 260 261 261 261 261 261
241 240 238 236 237 237 236 235 233 231 232 232 232 232 229 225 223 222 225 228 232 234 230 225 226 230 231 231 233 228 224 228 232 231 231 229 229 229 228 227 227 227 228 228 227 228 232 233 233 237 240 243 242 242 244 247 248 247 242 239 242 247 249 251 253 254 255 256 257 256 256 256 256 255 256 257 259 260 261 260 261 261 261 262 262
243 241 239 237 236 236 237 236 234 233 233 233 234 235 232 228 224 221 222 226 228 229 227 224 224 227 229 229 232 230 225 229 234 235 234 232 229 228 228 228 229 231 231 232 230 229 232 233 231 233 238 242 243 242 244 247 247 244 240 240 244 249 252 253 254 254 255 255 257 257 257 257 259 258 257 257 256 257 259 260 260 261 261 261 261
245 245 244 242 239 237 238 237 236 235 234 235 237 238 236 233 228 224 223 225 227 228 226 224 225 227 229 230 231 231 227 228 233 236 237 236 233 230 228 227 228 231 232 233 232 231 233 233 232 233 237 242 244 245 247 248 247 245 244 244 246 250 253 254 256 258 259 261 262 262 259 257 259 260 260 260 257 255 256 258 258 258 258 258 259
245 246 246 246 244 241 239 239 238 237 236 237 239 240 240 237 234 231 229 229 230 232 229 225 226 228 230 229 229 232 231 228 230 234 237 238 235 232 230 228 228 231 232 233 232 231 232 233 233 234 235 238 242 247 248 248 248 248 249 250 250 251 251 253 258 261 262 265 267 266 261 257 258 260 261 262 261 258 256 256 256 256 255 255 256
243 244 245 247 247 245 243 242 241 241 240 240 240 242 243 241 239 238 237 236 236 238 237 232 231 231 230 229 230 233 235 232 230 231 234 237 237 235 233 231 230 231 232 233 234 234 235 235 236 235 234 235 239 244 247 247 247 247 249 251 251 251 250 253 257 260 262 263 264 263 258 255 257 259 260 261 261 261 259 257 256 256 256 255 255
244 245 245 246 247 247 246 245 245 244 244 244 244 244 245 245 243 242 242 243 242 243 243 240 238 236 231 230 231 233 236 237 236 232 232 235 237 236 234 233 231 230 231 234 236 237 238 239 240 239 236 236 237 238 240 242 241 243 247 248 249 249 249 251 256 259 262 263 262 259 255 253 255 258 260 260 260 262 261 259 257 257 257 257 256
245 246 246 247 247 247 247 246 245 245 245 246 246 247 248 247 247 246 245 245 245 245 245 244 243 241 236 232 231 231 232 235 238 237 233 232 235 236 235 234 233 231 232 233 235 238 240 240 241 242 241 239 238 236 237 239 239 239 243 245 246 247 248 250 254 258 261 263 261 258 255 253 253 256 258 260 261 263 264 265 263 262 260 259 258
244 244 244 245 246 247 248 247 246 245 244 245 246 247 249 249 249 249 248 246 246 245 245 245 244 244 241 236 233 232 231 231 235 238 237 233 233 235 236 235 235 234 233 233 235 237 239 240 241 243 245 244 242 240 240 242 242 241 243 245 246 245 246 249 253 257 260 262 261 259 255 253 253 254 257 259 261 262 264 267 268 266 264 262 261
244 244 243 242 243 245 246 247 247 245 244 243 244 245 247 248 248 248 248 247 246 245 245 245 244 244 243 239 235 234 233 231 231 236 239 237 233 234 236 236 236 235 234 234 236 238 239 240 241 243 246 247 246 244 243 243 244 243 244 246 247 246 247 250 253 257 261 262 261 260 258 256 253 253 257 260 262 263 264 265 267 267 266 264 262
244 245 245 244 242 242 243 244 245 244 244 243 243 244 245 245 246 246 247 246 246 245 245 245 245 244 244 242 238 235 234 234 233 234 238 240 238 236 237 238 237 237 236 236 237 239 240 242 243 245 247 248 248 246 244 244 244 244 245 246 248 249 250 252 254 257 261 261 260 260 260 258 255 254 258 263 265 266 265 264 265 266 265 265 263
247 246 247 247 246 245 244 244 244 244 243 243 243 244 244 244 244 244 245 245 245 245 245 245 245 245 245 244 241 237 235 237 239 237 236 239 241 240 240 241 240 240 240 239 239 241 242 243 245 247 248 248 248 246 245 245 245 246 247 248 250 251 252 253 254 256 258 259 258 259 259 258 257 257 260 264 266 266 265 264 264 264 264 264 263
251 250 249 248 248 248 248 247 246 245 244 244 244 244 245 245 245 244 243 243 243 243 244 244 244 245 245 245 244 240 237 238 241 243 239 237 239 241 241 242 243 243 243 243 242 244 245 245 245 247 249 249 249 249 247 246 247 247 248 250 251 252 252 252 254 255 256 257 256 256 256 257 258 258 261 263 265 265 264 263 263 263 263 262 262
254 253 252 251 250 249 249 249 249 248 247 246 245 244 245 245 245 245 244 243 243 242 242 242 242 243 244 245 245 243 241 239 241 245 244 240 237 238 240 242 243 244 245 246 245 245 246 246 246 247 248 248 249 250 250 249 248 248 249 251 252 253 253 253 253 254 255 256 256 256 256 257 258 259 260 262 263 264 263 262 262 263 263 263 262
256 255 254 253 252 251 250 250 249 249 249 248 247 246 245 244 244 244 244 244 244 243 242 242 241 242 243 243 244 244 243 242 242 244 247 245 240 235 236 239 241 243 244 245 245 246 247 246 247 248 248 248 248 249 249 250 250 250 250 251 251 252 254 255 255 254 254 255 256 257 258 258 259 259 260 261 262 262 262 262 262 263 264 263 262
258 257 256 255 254 253 252 251 251 250 249 249 249 248 247 246 245 244 244 245 245 245 245 244 243 242 242 242 243 243 243 243 243 245 246 248 246 240 235 235 238 240 242 243 244 245 246 246 246 248 249 251 251 251 251 251 251 251 251 251 251 252 253 255 255 255 254 255 256 258 258 259 260 260 261 261 261 262 262 262 263 264 264 264 262
259 259 258 257 256 255 255 254 252 252 251 250 250 249 248 248 247 246 245 245 246 246 246 246 245 244 243 243 243 242 243 243 244 244 245 247 248 247 242 237 235 236 238 240 242 243 244 245 246 247 249 251 253 254 254 254 255 255 255 254 253 252 252 254 255 256 256 256 257 258 259 259 260 261 261 260 260 261 262 263 264 264 265 264 263
261 261 260 259 258 257 256 256 255 253 253 252 251 251 251 250 249 248 247 246 246 246 247 247 246 246 245 244 244 243 243 243 243 244 245 245 246 247 247 245 241 238 236 236 238 240 240 242 243 245 247 248 250 252 252 253 255 256 257 258 258 256 254 253 253 254 255 257 258 258 259 259 260 261 261 260 260 261 262 263 264 264 264 264 263
262 262 262 260 259 258 257 257 256 255 254 254 253 252 251 251 250 249 248 247 247 246 246 247 247 247 247 247 246 245 244 243 243 244 245 245 245 246 247 247 247 245 242 238 236 236 237 237 239 240 242 243 245 247 248 249 251 252 254 256 258 259 258 257 256 254 254 255 255 256 257 258 259 260 261 261 261 262 261 261 262 263 264 263 262
263 262 262 262 261 260 258 258 257 256 256 255 254 253 252 251 250 250 249 249 248 247 247 247 247 247 247 247 248 248 247 245 244 244 244 245 245 246 246 246 247 248 248 245 241 238 236 236 236 237 238 239 240 241 243 245 247 249 251 253 254 255 256 257 257 257 256 256 256 257 257 258 259 260 260 260 260 260 260 260 260 261 262 263 263
264 263 261 262 262 261 260 259 258 257 256 256 255 254 253 252 251 250 250 249 249 249 248 248 248 247 247 247 248 248 248 248 247 246 245 245 245 245 246 246 246 247 248 249 248 245 242 239 237 237 237 238 238 239 239 241 243 245 248 251 253 254 254 254 254 255 256 256 257 258 259 259 259 260 260 260 259 259 259 259 260 260 261 262 263
266 265 263 262 262 262 261 260 259 258 257 257 257 256 255 254 252 251 251 250 250 250 250 249 249 248 248 248 248 248 248 249 248 248 247 247 246 245 246 246 246 247 247 247 248 249 248 246 244 241 239 239 240 240 240 240 241 242 244 247 249 251 253 253 254 254 254 254 255 256 257 258 259 259 260 260 259 259 259 259 260 260 261 261 262
263 264 264 264 264 264 262 261 261 260 259 259 259 258 256 255 253 252 251 251 251 251 251 250 250 249 249 248 249 249 249 249 249 249 249 249 248 247 246 246 246 247 247 247 247 248 249 249 249 248 246 243 242 242 242 242 242 243 243 244 245 247 249 250 251 252 253 253 254 254 255 256 256 257 257 257 257 257 258 258 259 259 260 261 261
254 258 262 262 262 261 260 261 261 260 259 260 259 259 258 256 255 253 252 252 253 252 251 251 250 250 250 250 250 250 250 250 250 250 250 250 250 249 249 248 248 247 247 248 248 248 249 249 249 250 250 249 247 246 245 244 245 245 246 246 246 246 246 247 249 250 250 251 252 253 254 255 255 255 255 255 255 254 254 254 255 256 257 257 258
249 250 251 253 256 257 257 259 260 260 259 259 260 260 260 259 257 255 254 254 254 253 253 252 252 251 251 251 250 251 251 251 250 250 250 251 251 251 251 251 250 250 249 249 249 249 249 249 249 250 250 251 250 250 249 248 248 248 249 249 250 249 248 248 248 249 249 250 251 252 253 254 255 255 255 255 255 255 255 255 256 255 256 256 258
246 242 239 242 250 256 259 260 263 264 263 263 263 263 263 262 260 259 258 257 256 255 254 254 254 253 252 251 251 251 251 251 251 251 251 251 251 252 252 252 252 252 252 251 251 250 250 250 250 250 250 250 251 250 250 250 250 251 251 251 251 252 252 251 251 250 249 249 250 251 252 253 254 255 256 256 256 256 256 257 258 258 258 259 259
243 242 241 245 252 258 261 261 263 264 264 264 265 265 264 264 263 262 261 260 259 257 256 256 256 255 253 252 252 252 252 251 251 251 251 252 252 252 252 253 253 253 253 253 253 253 252 252 252 251 251 251 251 251 251 251 251 251 251 251 251 251 252 252 253 253 252 251 250 251 252 252 253 254 255 256 256 256 257 257 257 258 259 260 261
245 246 248 252 255 257 258 258 260 262 263 263 262 263 263 264 263 263 262 261 260 259 258 257 256 255 254 253 253 253 254 253 252 251 251 252 252 252 253 253 253 253 253 253 253 253 253 253 253 253 253 252 253 252 252 251 251 251 251 251 251 251 251 252 252 253 254 253 252 252 252 253 253 253 254 255 256 257 257 258 258 258 259 260 261
250 251 252 254 255 255 255 256 256 257 260 261 260 261 262 262 263 263 262 262 261 261 259 258 257 256 255 254 254 254 254 254 253 252 251 251 251 252 252 253 254 254 254 254 254 254 254 253 253 254 254 253 253 254 253 252 252 252 252 252 252 252 252 252 252 253 254 254 253 253 253 254 254 254 254 255 255 255 256 257 258 259 260 260 261
256 255 255 256 257 257 257 257 257 256 256 256 257 258 260 261 262 262 262 261 262 262 261 259 259 259 258 256 256 255 254 254 254 253 253 252 252 252 252 253 254 254 254 254 254 254 254 254 254 254 254 254 253 254 254 254 253 252 252 253 253 253 253 253 253 253 254 254 254 253 253 254 255 255 255 256 256 256 255 255 257 258 259 260 261
259 259 259 259 260 260 260 259 259 258 257 256 255 255 257 258 260 261 261 261 261 262 262 262 261 261 261 260 259 258 256 255 255 255 254 254 253 253 253 253 254 254 255 255 255 255 255 255 255 255 255 255 254 254 254 254 254 253 253 253 253 253 253 253 254 254 255 255 255 254 253 254 255 255 255 255 256 256 256 255 255 256 258 259 260
261 260 260 260 261 262 262 261 261 260 260 258 257 256 256 257 258 259 260 261 261 261 262 262 263 263 263 263 262 261 260 259 258 257 256 255 255 254 254 254 254 254 254 254 255 255 255 255 255 255 255 255 255 255 255 255 255 254 254 253 254 254 253 253 254 255 255 255 256 255 254 255 255 256 255 255 256 256 257 256 256 256 256 257 259
261 261 261 260 261 261 262 263 262 261 260 260 259 258 258 257 257 258 258 258 259 260 261 262 262 263 263 263 263 262 261 260 260 259 258 257 256 255 255 254 254 254 254 254 254 255 255 255 256 256 255 255 255 255 255 255 256 256 255 254 254 254 254 254 254 255 255 256 256 256 255 255 256 256 256 257 257 257 257 257 256 256 257 257 258
261 261 261 261 260 261 262 262 263 262 262 261 260 260 259 258 257 257 257 257 257 258 258 259 260 260 261 261 262 262 262 262 261 260 259 259 258 257 256 255 255 255 255 255 255 254 254 255 255 255 255 256 256 256 256 256 256 256 256 256 256 255 255 254 254 255 256 257 257 257 257 257 257 257 257 257 258 258 258 258 257 257 258 258 258
264 263 262 262 261 261 260 260 261 262 263 263 261 260 259 259 258 258 258 257 257 257 256 257 257 258 258 259 260 261 261 262 262 261 260 259 259 259 258 257 256 255 255 255 255 255 254 254 254 255 255 255 255 256 256 257 257 257 256 256 257 257 257 256 256 255 256 257 258 258 258 258 258 258 258 259 259 259 260 260 259 259 259 259 259
Height
10704 10701 10703 10707 10704 10699 10700 10704 10705 10705 10706 10708 10707 10707 10707 10706 10705 10703 10702 10703 10704 10703 10703 10703 10703 10704 10705 10706 10708 10709 10712 10714 10716 10717 10718 10720 10723 10725 10728 10731 10733 10734 10736 10737 10739 10741 10742 10743 10745 10747 10749 10751 10753 10754 10756 10758 10759 10761 10762 10763 10763 10765 10766 10768 10769 10770 10771 10772 10773 10774 10774 10775 10776 10777 10777 10778 10778 10779 10779 10780 10780 10781 10781 10782 10782
10700 10697 10698 10702 10701 10696 10696 10698 10699 10700 10701 10702 10702 10701 10701 10702 10701 10698 10697 10698 10699 10699 10699 10699 10700 10700 10701 10702 10704 10706 10708 10710 10712 10713 10715 10717 10719 10722 10724 10727 10730 10731 10733 10734 10736 10738 10739 10740 10742 10743 10745 10747 10749 10751 10753 10755 10756 10758 10759 10760 10761 10762 10763 10764 10766 10767 10769 10770 10771 10771 10772 10773 10773 10774 10775 10775 10776 10776 10777 10777 10778 10778 10778 10779 10780
10690 10687 10688 10694 10697 10695 10693 10692 10691 10691 10693 10694 10694 10695 10695 10696 10696 10693 10692 10693 10693 10694 10694 10694 10695 10696 10696 10698 10700 10702 10705 10707 10709 10710 10711 10713 10715 10717 10720 10722 10726 10728 10730 10732 10733 10735 10736 10737 10739 10740 10742 10744 10745 10747 10749 10751 10753 10754 10755 10756 10757 10759 10760 10761 10763 10764 10766 10767 10768 10769 10769 10770 10771 10771 10772 10772 10773 10773 10774 10774 10775 10775 10776 10776 10777
10681 10679 10679 10683 10688 10690 10688 10686 10683 10682 10683 10685 10686 10689 10689 10690 10689 10688 10687 10688 10688 10689 10690 10690 10691 10692 10692 10694 10696 10698 10701 10703 10705 10706 10708 10710 10711 10713 10716 10718 10722 10725 10727 10730 10731 10733 10734 10735 10736 10737 10739 10740 10742 10744 10746 10747 10749 10750 10752 10753 10753 10754 10756 10758 10760 10761 10762 10764 10765 10765 10766 10767 10768 10769 10769 10770 10770 10771 10771 10772 10772 10772 10773 10773 10774
10677 10674 10674 10677 10680 10682 10681 10679 10678 10678 10678 10679 10681 10682 10683 10683 10684 10683 10684 10684 10683 10684 10685 10685 10686 10688 10689 10690 10692 10694 10697 10699 10701 10702 10704 10706 10707 10709 10712 10715 10718 10721 10724 10727 10729 10731 10732 10733 10734 10734 10736 10737 10739 10740 10742 10743 10745 10746 10748 10748 10749 10750 10751 10753 10755 10757 10758 10759 10761 10762 10763 10764 10765 10766 10767 10767 10767 10768 10768 10769 10769 10770 10770 10770 10771
10672 10670 10669 10672 10674 10675 10674 10674 10674 10673 10673 10674 10676 10677 10677 10678 10679 10679 10680 10680 10680 10680 10681 10682 10683 10685 10686 10687 10689 10690 10692 10695 10697 10698 10700 10703 10704 10705 10708 10711 10715 10718 10721 10723 10725 10727 10729 10730 10730 10731 10732 10733 10735 10736 10738 10739 10741 10742 10744 10745 10745 10746 10747 10749 10751 10752 10754 10755 10757 10759 10760 10761 10762 10763 10764 10765 10765 10765 10766 10766 10767 10767 10767 10768 10768
10663 10663 10664 10666 10667 10667 10667 10668 10666 10666 10667 10669 10670 10671 10671 10672 10674 10675 10675 10677 10677 10678 10678 10678 10680 10682 10683 10684 10685 10686 10688 10691 10693 10694 10696 10699 10701 10702 10704 10708 10712 10715 10718 10720 10722 10724 10725 10726 10727 10728 10729 10730 10731 10732 10733 10735 10736 10738 10740 10741 10742 10743 10744 10745 10747 10749 10751 10752 10754 10755 10757 10758 10759 10760 10761 10762 10762 10763 10763 10764 10764 10765 10765 10765 10766
10655 10655 10657 10659 10659 10659 10661 10660 10658 10658 10660 10662 10663 10665 10665 10667 10669 10670 10671 10673 10675 10675 10675 10675 10676 10678 10680 10680 10681 10682 10684 10687 10689 10690 10692 10695 10698 10699 10701 10704 10707 10711 10714 10716 10718 10720 10722 10723 10724 10725 10725 10726 10727 10728 10729 10730 10732 10734 10736 10737 10738 10739 10741 10742 10743 10745 10747 10748 10750 10752 10753 10755 10756 10757 10758 10758 10759 10760 10761 10761 10762 10762 10763 10763 10763
10650 10649 10651 10652 10651 10653 10654 10652 10651 10652 10653 10655 10657 10659 10660 10662 10665 10666 10667 10669 10671 10671 10671 10672 10673 10674 10676 10676 10677 10678 10680 10682 10684 10687 10689 10691 10694 10696 10699 10701 10703 10706 10710 10712 10715 10717 10719 10720 10721 10722 10723 10724 10724 10725 10726 10727 10728 10730 10731 10733 10734 10735 10737 10739 10740 10742 10743 10745 10746 10748 10749 10751 10752 10753 10754 10755 10756 10757 10758 10758 10759 10760 10760 10760 10760
10644 10643 10645 10645 10645 10646 10646 10645 10645 10646 10647 10650 10652 10653 10656 10659 10661 10661 10662 10665 10666 10667 10668 10669 10669 10670 10671 10672 10673 10674 10676 10678 10680 10683 10686 10688 10690 10693 10696 10698 10700 10703 10706 10709 10712 10714 10716 10717 10718 10719 10720 10721 10721 10722 10722 10724 10725 10726 10727 10729 10730 10732 10733 10735 10736 10738 10740 10741 10743 10744 10745 10746 10748 10749 10750 10752 10753 10753 10754 10755 10756 10757 10757 10757 10758
10637 10637 10637 10638 10639 10640 10639 10638 10639 10640 10642 10645 10647 10649 10652 10654 10656 10657 10657 10659 10661 10662 10664 10665 10666 10666 10667 10668 10669 10671 10673 10675 10677 10679 10682 10685 10687 10690 10692 10695 10697 10699 10701 10704 10708 10711 10713 10714 10715 10716 10717 10718 10718 10718 10719 10720 10721 10722 10723 10725 10726 10728 10729 10731 10732 10734 10736 10738 10739 10740 10741 10743 10744 10745 10747 10748 10749 10750 10751 10752 10753 10754 10755 10755 10755
10630 10631 10631 10632 10633 10634 10633 10633 10633 10634 10638 10640 10642 10644 10647 10649 10651 10652 10653 10654 10656 10657 10660 10661 10662 10663 10664 10665 10667 10669 10670 10672 10674 10676 10679 10681 10683 10686 10688 10691 10693 10695 10697 10699 10703 10706 10709 10711 10712 10713 10714 10715 10715 10715 10716 10716 10717 10718 10719 10720 10722 10724 10725 10727 10729 10731 10733 10735 10736 10737 10738 10739 10740 10742 10743 10745 10746 10747 10748 10749 10750 10751 10752 10752 10752
10624 10625 10626 10626 10628 10629 10629 10628 10629 10630 10633 10636 10637 10638 10642 10645 10647 10648 10649 10650 10652 10653 10656 10658 10659 10659 10660 10662 10664 10666 10667 10669 10671 10673 10675 10677 10680 10682 10685 10687 10688 10691 10693 10696 10698 10700 10704 10707 10709 10710 10711 10711 10712 10713 10714 10713 10714 10715 10716 10717 10719 10720 10722 10724 10725 10727 10729 10731 10732 10733 10734 10735 10737 10738 10739 10741 10743 10744 10745 10746 10747 10747 10748 10749 10749
10618 10620 10621 10621 10623 10624 10624 10624 10625 10626 10628 10631 10632 10632 10636 10640 10643 10644 10645 10646 10648 10649 10652 10654 10654 10655 10656 10658 10660 10662 10664 10665 10667 10669 10671 10674 10676 10678 10680 10682 10684 10687 10690 10692 10694 10696 10698 10700 10703 10705 10707 10708 10709 10711 10711 10711 10711 10712 10713 10714 10716 10717 10719 10720 10721 10723 10725 10726 10728 10729 10730 10732 10733 10734 10736 10738 10739 10741 10742 10742 10743 10744 10744 10745 10745
10614 10615 10616 10617 10618 10619 10620 10620 10620 10621 10623 10626 10628 10628 10631 10635 10638 10639 10640 10642 10643 10645 10647 10649 10650 10651 10652 10654 10656 10658 10659 10661 10663 10665 10667 10670 10672 10673 10676 10678 10681 10684 10686 10688 10690 10692 10694 10696 10698 10700 10702 10704 10706 10708 10709 10709 10709 10710 10710 10711 10713 10714 10715 10716 10717 10719 10721 10722 10724 10726 10727 10728 10729 10731 10732 10734 10735 10737 10738 10739 10740 10740 10741 10741 10742
10609 10610 10611 10612 10613 10615 10615 10616 10617 10618 10619 10621 10623 10624 10627 10631 10633 10635 10636 10638 10639 10641 10643 10645 10645 10647 10649 10651 10653 10654 10655 10656 10658 10661 10663 10665 10667 10669 10672 10674 10677 10680 10682 10683 10686 10688 10690 10692 10693 10695 10697 10699 10701 10703 10704 10706 10707 10707 10708 10708 10710 10711 10712 10713 10714 10715 10717 10719 10720 10722 10723 10725 10726 10727 10728 10730 10731 10733 10734 10735 10736 10737 10737 10738 10738
10606 10607 10608 10609 10609 10610 10611 10612 10613 10614 10615 10616 10618 10620 10623 10626 10628 10631 10632 10634 10635 10637 10638 10640 10641 10643 10645 10648 10649 10651 10651 10652 10654 10657 10659 10662 10664 10667 10669 10671 10673 10675 10677 10679 10681 10684 10685 10687 10690 10692 10693 10694 10696 10697 10699 10700 10702 10703 10704 10705 10706 10707 10708 10710 10711 10712 10714 10715 10717 10718 10720 10721 10723 10724 10725 10726 10727 10728 10730 10731 10732 10733 10733 10734 10735
10603 10604 10604 10605 10606 10606 10607 10608 10609 10610 10611 10612 10614 10616 10619 10621 10624 10626 10629 10630 10632 10634 10635 10637 10638 10640 10642 10644 10646 10647 10648 10649 10651 10653 10656 10659 10661 10664 10666 10668 10670 10671 10673 10675 10677 10679 10681 10683 10686 10688 10689 10690 10691 10693 10694 10696 10697 10698 10699 10701 10701 10703 10705 10706 10708 10709 10710 10712 10713 10715 10716 10717 10718 10720 10721 10722 10723 10724 10725 10726 10727 10728 10729 10730 10731
10600 10600 10601 10602 10603 10604 10604 10605 10606 10607 10608 10609 10611 10612 10615 10617 10619 10622 10624 10626 10628 10630 10632 10633 10635 10637 10639 10640 10642 10643 10645 10646 10647 10650 10652 10655 10658 10660 10662 10665 10667 10668 10669 10671 10673 10675 10677 10679 10682 10683 10685 10686 10687 10689 10691 10692 10692 10693 10694 10696 10697 10699 10701 10703 10704 10705 10707 10708 10709 10711 10712 10713 10715 10716 10717 10718 10719 10719 10720 10721 10723 10724 10725 10726 10726
10597 10598 10599 10599 10601 10601 10602 10603 10603 10605 10606 10607 10608 10609 10611 10613 10615 10618 10620 10622 10623 10626 10628 10630 10631 10633 10635 10636 10638 10639 10641 10642 10644 10646 10648 10651 10654 10656 10658 10660 10662 10664 10666 10668 10669 10671 10673 10675 10677 10679 10680 10682 10683 10685 10687 10688 10689 10690 10691 10693 10694 10696 10698 10699 10700 10701 10703 10704 10706 10707 10708 10709 10711 10712 10713 10714 10714 10715 10716 10717 10718 10719 10720 10721 10722
10595 10596 10596 10597 10598 10599 10600 10601 10601 10602 10603 10604 10605 10606 10608 10610 10611 10613 10615 10617 10618 10620 10623 10625 10627 10629 10631 10633 10634 10636 10637 10638 10640 10642 10645 10647 10649 10651 10653 10656 10658 10660 10663 10665 10666 10668 10669 10670 10672 10674 10676 10677 10679 10681 10682 10684 10686 10687 10688 10689 10690 10692 10693 10694 10696 10697 10699 10701 10703 10704 10705 10705 10706 10708 10709 10710 10710 10711 10712 10713 10713 10714 10715 10716 10717
10593 10594 10594 10595 10596 10597 10598 10599 10600 10600 10601 10602 10603 10603 10604 10606 10607 10609 10610 10612 10614 10615 10618 10621 10623 10624 10627 10629 10630 10632 10633 10634 10635 10638 10640 10642 10644 10646 10649 10651 10654 10656 10659 10660 10662 10663 10665 10666 10668 10670 10671 10672 10674 10677 10678 10679 10681 10683 10684 10685 10686 10688 10689 10690 10692 10694 10695 10697 10699 10700 10702 10702 10702 10703 10705 10706 10707 10707 10707 10708 10709 10709 10710 10711 10711
10591 10592 10592 10593 10593 10594 10595 10596 10597 10598 10599 10599 10600 10601 10601 10602 10603 10605 10606 10608 10609 10611 10613 10616 10618 10620 10622 10624 10626 10628 10629 10630 10631 10634 10636 10638 10640 10642 10645 10647 10650 10652 10654 10656 10657 10659 10661 10662 10663 10665 10666 10666 10668 10671 10673 10674 10676 10678 10679 10681 10682 10683 10684 10686 10688 10690 10691 10693 10695 10696 10698 10698 10699 10699 10701 10702 10703 10703 10703 10704 10704 10705 10705 10706 10706
10587 10588 10589 10589 10590 10591 10592 10593 10594 10594 10595 10596 10597 10597 10598 10599 10600 10601 10602 10604 10605 10607 10609 10611 10613 10615 10618 10620 10622 10624 10625 10625 10627 10629 10631 10633 10635 10638 10640 10642 10645 10648 10649 10651 10653 10654 10656 10658 10659 10660 10661 10661 10663 10666 10668 10669 10671 10673 10674 10676 10677 10678 10680 10682 10684 10686 10687 10689 10690 10692 10693 10695 10695 10695 10696 10698 10699 10699 10700 10700 10701 10701 10702 10702 10702
10583 10584 10585 10585 10586 10587 10588 10589 10590 10590 10591 10592 10593 10594 10594 10596 10596 10597 10599 10600 10601 10603 10604 10607 10609 10611 10613 10615 10617 10619 10620 10621 10623 10624 10627 10629 10631 10633 10635 10638 10640 10643 10644 10646 10648 10650 10651 10652 10654 10655 10656 10658 10660 10662 10663 10665 10667 10668 10669 10671 10672 10674 10676 10678 10679 10681 10683 10684 10685 10687 10689 10691 10692 10692 10693 10694 10695 10695 10696 10696 10697 10698 10698 10698 10698
10580 10581 10581 10582 10582 10583 10584 10585 10585 10586 10587 10587 10588 10589 10590 10591 10592 10593 10594 10595 10597 10598 10600 10602 10604 10606 10608 10610 10612 10614 10616 10617 10619 10620 10622 10624 10627 10629 10630 10633 10635 10638 10639 10641 10643 10645 10646 10647 10649 10650 10652 10654 10656 10658 10659 10661 10662 10664 10665 10666 10667 10669 10672 10674 10675 10677 10678 10679 10680 10682 10684 10686 10688 10688 10689 10690 10691 10692 10692 10692 10693 10694 10694 10695 10695
10576 10577 10577 10578 10578 10579 10579 10580 10581 10581 10582 10583 10583 10584 10585 10586 10587 10588 10589 10591 10592 10593 10595 10597 10599 10601 10603 10605 10607 10609 10611 10612 10615 10616 10618 10619 10622 10624 10626 10628 10630 10632 10634 10637 10639 10640 10641 10642 10644 10646 10648 10650 10652 10653 10654 10655 10657 10659 10659 10660 10661 10664 10667 10669 10671 10672 10673 10674 10675 10677 10679 10681 10683 10684 10684 10685 10687 10687 10688 10688 10689 10689 10690 10691 10691
10572 10572 10573 10573 10574 10574 10575 10575 10576 10577 10578 10578 10579 10579 10580 10581 10582 10583 10584 10586 10587 10589 10590 10592 10594 10596 10598 10600 10602 10604 10605 10607 10609 10612 10614 10615 10617 10619 10621 10623 10625 10627 10629 10632 10634 10635 10636 10638 10640 10642 10643 10644 10645 10647 10648 10651 10653 10653 10653 10654 10656 10659 10662 10664 10665 10666 10667 10669 10670 10672 10674 10676 10678 10679 10679 10680 10681 10682 10683 10683 10684 10685 10686 10686 10686
10566 10567 10568 10568 10569 10570 10571 10571 10572 10573 10574 10575 10575 10576 10576 10577 10577 10578 10579 10580 10582 10583 10585 10587 10589 10591 10592 10594 10596 10598 10600 10601 10603 10606 10609 10611 10612 10614 10617 10618 10621 10623 10624 10626 10628 10629 10631 10633 10636 10637 10638 10638 10640 10642 10644 10646 10647 10648 10648 10649 10651 10654 10657 10658 10659 10660 10662 10664 10665 10666 10668 10670 10672 10673 10674 10675 10676 10677 10678 10678 10679 10680 10680 10681 10681
10560 10561 10562 10563 10564 10564 10565 10566 10567 10568 10569 10570 10571 10572 10572 10573 10573 10574 10575 10576 10577 10578 10580 10581 10583 10585 10587 10589 10591 10592 10594 10596 10597 10599 10602 10605 10607 10609 10611 10613 10616 10617 10619 10621 10623 10624 10625 10628 10630 10631 10632 10633 10634 10636 10639 10640 10641 10642 10644 10645 10646 10649 10650 10651 10653 10655 10657 10658 10659 10660 10662 10664 10666 10667 10668 10669 10670 10671 10671 10672 10673 10674 10675 10676 10676
10553 10555 10556 10557 10557 10559 10560 10561 10562 10564 10565 10566 10566 10567 10567 10568 10569 10570 10571 10571 10572 10573 10575 10576 10578 10579 10581 10583 10585 10587 10588 10590 10592 10593 10595 10598 10601 10603 10605 10607 10610 10611 10613 10615 10617 10618 10620 10622 10624 10625 10626 10627 10629 10631 10633 10634 10635 10636 10638 10640 10641 10643 10644 10645 10647 10649 10651 10651 10652 10654 10655 10657 10659 10661 10662 10663 10664 10665 10665 10666 10667 10668 10669 10670 10671
10547 10549 10550 10551 10551 10553 10554 10556 10557 10558 10559 10559 10560 10561 10562 10563 10564 10566 10567 10567 10568 10569 10570 10571 10572 10574 10575 10577 10578 10580 10582 10584 10585 10587 10588 10590 10593 10597 10599 10601 10603 10605 10607 10609 10611 10612 10614 10616 10617 10619 10620 10621 10622 10624 10626 10628 10628 10630 10632 10634 10636 10637 10637 10639 10640 10642 10643 10644 10645 10647 10649 10651 10653 10655 10656 10657 10657 10658 10659 10660 10661 10662 10663 10664 10665
10541 10542 10543 10544 10545 10546 10548 10549 10551 10552 10553 10553 10554 10555 10556 10558 10559 10560 10562 10563 10563 10564 10565 10566 10567 10568 10569 10570 10572 10573 10575 10577 10578 10580 10582 10583 10585 10588 10592 10594 10596 10598 10599 10601 10604 10605 10607 10608 10610 10612 10614 10614 10615 10617 10619 10620 10621 10623 10625 10628 10630 10631 10631 10632 10634 10635 10636 10637 10638 10640 10642 10644 10646 10648 10649 10650 10650 10651 10652 10653 10654 10655 10656 10657 10658
10534 10535 10535 10536 10538 10540 10541 10542 10543 10544 10546 10547 10548 10550 10551 10552 10553 10555 10555 10556 10557 10558 10558 10559 10560 10561 10563 10564 10565 10567 10568 10570 10572 10573 10575 10577 10578 10580 10583 10586 10588 10590 10592 10594 10596 10598 10600 10601 10603 10605 10607 10608 10609 10610 10612 10613 10614 10615 10617 10619 10621 10623 10625 10626 10627 10627 10628 10629 10631 10633 10635 10637 10639 10640 10641 10642 10644 10644 10645 10646 10646 10647 10648 10649 10651
10527 10526 10527 10528 10529 10532 10533 10534 10535 10537 10538 10540 10541 10543 10544 10545 10546 10547 10548 10549 10550 10551 10552 10552 10553 10555 10556 10557 10558 10560 10561 10563 10564 10566 10568 10569 10571 10573 10575 10577 10579 10581 10583 10586 10588 10590 10592 10594 10595 10597 10599 10600 10602 10603 10605 10606 10607 10609 10610 10612 10613 10615 10616 10618 10619 10620 10621 10622 10624 10625 10627 10629 10631 10632 10633 10635 10637 10637 10638 10639 10639 10640 10641 10641 10643
10518 10517 10517 10518 10520 10523 10524 10525 10526 10529 10531 10532 10533 10534 10535 10536 10537 10539 10541 10542 10543 10544 10545 10546 10546 10547 10549 10550 10551 10553 10555 10556 10558 10559 10560 10561 10563 10565 10567 10569 10571 10572 10574 10576 10579 10581 10583 10585 10587 10589 10591 10592 10594 10596 10597 10599 10600 10602 10603 10605 10607 10608 10609 10610 10611 10612 10613 10614 10615 10617 10619 10621 10623 10624 10625 10627 10628 10629 10630 10631 10632 10633 10634 10634 10635
10506 10506 10507 10508 10510 10512 10514 10515 10517 10520 10522 10524 10524 10525 10526 10527 10529 10531 10533 10535 10536 10537 10538 10539 10540 10540 10541 10543 10544 10546 10548 10549 10551 10552 10553 10554 10556 10557 10559 10561 10563 10564 10565 10567 10569 10572 10574 10576 10578 10581 10582 10583 10585 10587 10589 10591 10593 10594 10596 10597 10599 10600 10601 10603 10604 10604 10604 10606 10607 10608 10610 10612 10614 10615 10617 10618 10619 10620 10622 10623 10624 10625 10626 10626 10627
10494 10494 10497 10499 10501 10502 10504 10505 10508 10510 10513 10514 10515 10517 10518 10519 10521 10524 10526 10527 10529 10530 10530 10531 10532 10532 10534 10535 10536 10538 10540 10542 10544 10545 10546 10547 10549 10550 10551 10552 10553 10555 10557 10558 10560 10562 10564 10566 10569 10571 10573 10575 10576 10577 10580 10582 10584 10586 10588 10590 10590 10592 10593 10594 10596 10596 10596 10598 10599 10600 10602 10603 10605 10607 10608 10609 10610 10612 10613 10615 10616 10617 10617 10618 10618
10486 10487 10489 10491 10491 10492 10493 10495 10497 10500 10503 10505 10507 10507 10509 10511 10514 10516 10518 10519 10520 10521 10521 10522 10523 10523 10525 10527 10529 10530 10532 10533 10536 10537 10538 10540 10541 10542 10543 10544 10545 10547 10548 10550 10552 10554 10555 10557 10559 10560 10563 10566 10567 10568 10570 10573 10575 10577 10579 10581 10582 10583 10584 10586 10586 10587 10588 10589 10591 10592 10594 10595 10596 10598 10600 10601 10602 10603 10605 10607 10608 10608 10608 10609 10610
10479 10481 10481 10481 10480 10482 10484 10485 10487 10490 10494 10496 10497 10497 10499 10503 10506 10507 10510 10511 10511 10512 10512 10512 10514 10514 10517 10520 10521 10522 10523 10525 10527 10528 10530 10531 10533 10534 10535 10536 10537 10539 10540 10542 10544 10545 10547 10548 10549 10550 10552 10555 10556 10558 10561 10565 10567 10568 10570 10573 10573 10573 10575 10576 10577 10577 10579 10581 10582 10584 10585 10586 10586 10588 10590 10592 10593 10595 10597 10599 10600 10600 10599 10600 10602
10474 10473 10472 10471 10470 10472 10475 10478 10479 10482 10486 10488 10488 10488 10489 10493 10497 10498 10500 10502 10503 10503 10502 10503 10505 10507 10509 10511 10513 10513 10514 10515 10517 10519 10520 10522 10524 10525 10526 10527 10529 10531 10532 10534 10535 10537 10539 10540 10540 10541 10543 10544 10544 10547 10551 10554 10557 10559 10561 10563 10564 10563 10564 10566 10567 10568 10569 10571 10573 10575 10576 10576 10576 10578 10579 10582 10584 10586 10589 10591 10591 10591 10591 10592 10594
10468 10466 10465 10465 10465 10466 10469 10472 10474 10477 10479 10480 10480 10479 10478 10481 10486 10488 10490 10492 10493 10493 10494 10494 10496 10498 10500 10502 10503 10503 10504 10505 10507 10509 10511 10513 10514 10515 10516 10518 10520 10521 10523 10525 10526 10528 10530 10531 10531 10532 10533 10534 10534 10537 10541 10544 10546 10548 10550 10552 10553 10552 10554 10557 10557 10557 10559 10562 10565 10567 10566 10565 10566 10568 10569 10571 10574 10577 10580 10581 10580 10580 10581 10582 10584
10461 10460 10460 10461 10461 10462 10464 10467 10469 10471 10473 10473 10472 10469 10467 10469 10474 10477 10480 10480 10481 10483 10484 10484 10485 10487 10489 10492 10493 10493 10493 10494 10497 10500 10501 10502 10504 10505 10506 10507 10509 10511 10513 10515 10516 10517 10520 10521 10521 10522 10523 10524 10524 10527 10531 10533 10535 10537 10538 10539 10541 10542 10544 10546 10546 10545 10546 10551 10557 10558 10556 10554 10556 10559 10560 10560 10563 10567 10570 10571 10571 10571 10571 10572 10573
10453 10452 10453 10453 10454 10457 10459 10462 10465 10466 10465 10465 10463 10460 10459 10460 10462 10466 10468 10468 10469 10472 10474 10473 10473 10475 10477 10480 10483 10483 10482 10483 10486 10489 10491 10492 10492 10494 10495 10496 10498 10500 10502 10504 10506 10506 10508 10510 10511 10511 10513 10514 10515 10516 10519 10521 10523 10526 10526 10527 10530 10532 10533 10535 10536 10535 10534 10539 10546 10549 10547 10544 10545 10549 10551 10551 10553 10556 10559 10559 10560 10561 10561 10562 10563
10443 10443 10443 10443 10445 10448 10452 10457 10461 10460 10457 10455 10454 10452 10451 10451 10452 10455 10456 10456 10459 10461 10461 10461 10461 10462 10465 10469 10471 10472 10472 10472 10474 10477 10479 10480 10480 10482 10484 10485 10487 10489 10491 10493 10494 10495 10496 10498 10500 10501 10501 10504 10505 10505 10505 10509 10512 10514 10515 10516 10518 10521 10523 10525 10526 10525 10523 10526 10532 10538 10539 10535 10534 10538 10542 10541 10541 10545 10548 10550 10550 10551 10551 10550 10551
10433 10433 10433 10434 10436 10439 10445 10450 10453 10451 10447 10445 10444 10443 10443 10443 10444 10445 10445 10446 10449 10450 10448 10449 10451 10451 10454 10457 10459 10460 10460 10461 10462 10465 10467 10468 10469 10470 10473 10475 10476 10478 10479 10481 10481 10482 10483 10485 10488 10489 10489 10491 10493 10493 10493 10495 10498 10501 10503 10505 10507 10510 10513 10514 10514 10515 10514 10515 10518 10525 10529 10525 10522 10527 10531 10529 10529 10532 10537 10541 10541 10540 10540 10539 10539
10421 10422 10423 10425 10426 10429 10435 10441 10441 10437 10434 10434 10434 10433 10435 10436 10435 10435 10435 10437 10439 10439 10436 10437 10440 10441 10442 10445 10447 10448 10449 10451 10453 10454 10456 10456 10457 10459 10463 10465 10465 10466 10467 10468 10468 10469 10471 10473 10475 10477 10477 10478 10480 10481 10481 10481 10484 10488 10491 10493 10496 10498 10501 10502 10503 10504 10504 10504 10505 10512 10518 10515 10511 10516 10520 10517 10517 10520 10524 10529 10532 10531 10531 10530 10529
10408 10411 10413 10415 10417 10419 10425 10429 10428 10425 10422 10421 10422 10424 10426 10427 10426 10425 10425 10426 10428 10427 10426 10427 10429 10430 10431 10432 10434 10436 10438 10440 10442 10442 10443 10443 10445 10447 10451 10453 10453 10454 10454 10454 10455 10457 10458 10459 10461 10463 10464 10465 10466 10467 10468 10468 10470 10473 10477 10481 10483 10484 10487 10491 10492 10493 10493 10492 10492 10497 10505 10505 10500 10502 10506 10506 10506 10508 10511 10515 10520 10521 10521 10521 10520
10395 10398 10401 10405 10407 10410 10415 10417 10414 10411 10409 10408 10411 10414 10415 10415 10415 10414 10414 10415 10415 10416 10417 10418 10420 10420 10420 10420 10421 10423 10425 10427 10428 10429 10429 10431 10433 10435 10438 10440 10440 10441 10441 10441 10443 10445 10445 10446 10447 10449 10451 10452 10452 10453 10455 10456 10457 10459 10463 10468 10469 10470 10475 10479 10480 10480 10480 10481 10481 10483 10490 10492 10489 10490 10494 10494 10495 10497 10498 10502 10507 10509 10510 10511 10511
10384 10387 10390 10392 10396 10401 10406 10405 10399 10396 10396 10398 10401 10403 10402 10403 10403 10402 10402 10403 10404 10407 10408 10408 10409 10409 10408 10408 10410 10411 10412 10413 10414 10415 10416 10418 10419 10421 10424 10426 10428 10428 10428 10428 10430 10431 10432 10433 10434 10435 10436 10437 10438 10440 10441 10443 10444 10445 10449 10453 10454 10456 10462 10466 10468 10468 10469 10469 10469 10469 10474 10478 10477 10478 10481 10481 10482 10484 10485 10488 10494 10497 10499 10499 10499
10371 10374 10377 10380 10385 10391 10394 10391 10388 10386 10385 10386 10388 10388 10388 10390 10390 10390 10390 10391 10393 10395 10396 10396 10396 10396 10396 10397 10399 10400 10400 10400 10399 10401 10403 10405 10406 10407 10410 10412 10414 10415 10415 10415 10416 10418 10419 10420 10420 10421 10422 10423 10424 10426 10427 10428 10429 10431 10435 10438 10439 10442 10447 10451 10453 10456 10458 10458 10455 10454 10459 10463 10463 10465 10468 10469 10470 10471 10471 10474 10480 10484 10487 10487 10487